Location: Cerda�ola
(41.4919°N, 2.1403°E)
Time: 02:43:50
(UTC+00:00)

Cosmos 2369 Rocket - Pass Details

Date: 29 March 2020
Orbit: 829 x 852 km, 71.0° (Epoch: 31 May)

Event Time Altitude Azimuth Distance (km) Brightness Sun altitude
Rises 21:32:04 0° 328° (NNW) 3,422 6.4 -34.1°
Reaches altitude 10° 21:34:42 10° 320° (NW) 2,479 5.4 -34.4°
Enters shadow 21:38:53 34° 277° (W) 1,372 3.5 -35.0°
